KE4PKT Weather Reports


time (UTC)temp
F
wind
direction
speed
knots
gust
knots
rain 1hr
in
rain 24hr
in
rain mn
in
humidity
%
barometer
mb
20260903054621 72 0 0.0 0.0 0.00 0.00 0.00 94 1017.5
20260903053041 73 0 0.0 0.0 0.00 0.00 0.00 94 1017.7
20260903051602 73 0 0.0 0.0 0.00 0.00 0.00 94 1017.6
20260903050105 73 0 0.0 0.0 0.00 0.00 0.00 94 1017.6
20260903044556 73 0 0.0 0.0 0.00 0.00 0.00 94 1017.5
20260903043124 74 0 0.0 0.0 0.00 0.00 0.00 93 1017.5
20260903041609 74 0 0.0 0.0 0.00 0.00 0.00 93 1017.5
20260903040055 74 0 0.0 0.0 0.00 0.00 0.00 92 1017.4
20260903034542 74 0 0.0 0.0 0.00 0.00 0.00 92 1017.6
20260903033049 75 0 0.0 0.0 0.00 0.00 0.00 91 1017.6
20260903031605 75 0 0.0 0.0 0.00 0.00 0.00 90 1017.5
20260903030042 76 0 0.0 0.0 0.00 0.00 0.00 89 1017.6
20260903024547 76 0 0.0 0.0 0.00 0.00 0.00 88 1017.6
20260903023130 76 0 0.0 0.0 0.00 0.00 0.00 87 1017.6
20260903023047 76 0 0.0 0.0 0.00 0.00 0.00 87 1017.6
20260903021558 77 0 0.0 0.0 0.00 0.00 0.00 85 1017.6
20260903020044 78 0 0.0 0.0 0.00 0.00 0.00 84 1017.7
20260903014638 78 0 0.0 0.0 0.00 0.00 0.00 83 1017.7
20260903013100 80 0 0.0 0.0 0.00 0.00 0.00 81 1017.5
20260903011602 81 0 0.0 0.0 0.00 0.00 0.00 79 1017.5
20260903010105 83 0 0.0 0.0 0.00 0.00 0.00 76 1017.2
20260903004656 84 0 0.0 0.0 0.00 0.00 0.00 74 1017.1
20260903003105 86 0 0.0 0.0 0.00 0.00 0.00 71 1017.0
20260903001545 89 0 0.0 0.0 0.00 0.00 0.00 69 1016.9
20260903000059 91 0 0.0 0.0 0.00 0.00 0.00 66 1016.9
20260902234551 93 0 0.0 0.0 0.00 0.00 0.00 61 1017.0
20260902233048 94 0 0.0 0.0 0.00 0.00 0.00 57 1017.1
20260902231551 95 0 0.0 0.0 0.00 0.00 0.00 56 1017.1
20260902230121 95 0 0.0 0.0 0.00 0.00 0.00 56 1017.2
20260902224615 95 0 0.0 0.0 0.00 0.00 0.00 55 1017.2
20260902223113 95 0 0.0 0.0 0.00 0.00 0.00 55 1017.1
20260902221549 95 0 0.0 0.0 0.00 0.00 0.00 51 1017.3
20260902220058 96 0 0.0 0.0 0.00 0.00 0.00 51 1017.3
20260902214625 95 0 0.0 0.0 0.00 0.00 0.00 51 1017.4
20260902213057 96 0 0.0 0.0 0.00 0.00 0.00 50 1017.3
20260902211556 96 0 0.0 0.0 0.00 0.00 0.00 52 1017.3
20260902210046 96 0 0.0 0.0 0.00 0.00 0.00 52 1017.5
20260902204620 96 0 0.0 0.0 0.00 0.00 0.00 51 1017.5
20260902203049 96 0 0.0 0.0 0.00 0.00 0.00 53 1017.6
20260902201557 96 0 0.0 0.0 0.00 0.00 0.00 57 1017.7
20260902200050 95 0 0.0 0.0 0.00 0.00 0.00 55 1017.8
20260902194625 95 0 0.0 0.0 0.00 0.00 0.00 54 1018.1
20260902194550 95 0 0.0 0.0 0.00 0.00 0.00 54 1018.1
20260902193104 96 0 0.0 0.0 0.00 0.00 0.00 55 1018.3
20260902191600 95 0 0.0 0.0 0.00 0.00 0.00 57 1018.3
20260902190049 94 0 0.0 0.0 0.00 0.00 0.00 56 1018.4
20260902184542 93 0 0.0 0.0 0.00 0.00 0.00 58 1018.5
20260902183103 95 0 0.0 0.0 0.00 0.00 0.00 57 1018.5
20260902181719 95 0 0.0 0.0 0.00 0.00 0.00 60 1018.6
20260902180046 93 0 0.0 0.0 0.00 0.00 0.00 59 1018.8
20260902174555 93 0 0.0 0.0 0.00 0.00 0.00 61 1019.0
20260902173050 93 0 0.0 0.0 0.00 0.00 0.00 57 1019.3
20260902171618 93 0 0.0 0.0 0.00 0.00 0.00 61 1019.4
20260902170104 93 0 0.0 0.0 0.00 0.00 0.00 63 1019.5
20260902164646 92 0 0.0 0.0 0.00 0.00 0.00 60 1019.6
20260902163047 91 0 0.0 0.0 0.00 0.00 0.00 63 1019.8
20260902161542 90 0 0.0 0.0 0.00 0.00 0.00 66 1019.8
20260902160050 89 0 0.0 0.0 0.00 0.00 0.00 69 1020.0
20260902154549 89 0 0.0 0.0 0.00 0.00 0.00 69 1020.1
20260902153227 88 0 0.0 0.0 0.00 0.00 0.00 70 1020.1
20260902151602 88 0 0.0 0.0 0.00 0.00 0.00 74 1020.1
20260902150053 86 0 0.0 0.0 0.00 0.00 0.00 75 1020.2
20260902144659 85 0 0.0 0.0 0.00 0.00 0.00 76 1020.1
20260902143051 85 0 0.0 0.0 0.00 0.00 0.00 78 1020.0
20260902141548 84 0 0.0 0.0 0.00 0.00 0.00 78 1020.0
20260902140044 83 0 0.0 0.0 0.00 0.00 0.00 81 1019.9
20260902134600 81 0 0.0 0.0 0.00 0.00 0.00 84 1019.9
20260902133057 78 0 0.0 0.0 0.00 0.00 0.00 91 1019.9
20260902131556 76 0 0.0 0.0 0.00 0.00 0.00 98 1020.0
20260902130108 74 0 0.0 0.0 0.00 0.00 0.00 98 1019.9
20260902124616 73 0 0.0 0.0 0.00 0.00 0.00 98 1019.8
20260902123048 71 0 0.0 0.0 0.00 0.00 0.00 98 1019.6
20260902121543 70 0 0.0 0.0 0.00 0.00 0.00 98 1019.5
20260902120048 69 0 0.0 0.0 0.00 0.00 0.00 97 1019.5
20260902114617 69 0 0.0 0.0 0.00 0.00 0.00 97 1019.4
20260902113053 69 0 0.0 0.0 0.00 0.00 0.00 97 1019.3
20260902111550 69 0 0.0 0.0 0.00 0.00 0.00 97 1019.2
20260902110049 69 0 0.0 0.0 0.00 0.00 0.00 97 1019.1
20260902104609 68 0 0.0 0.0 0.00 0.00 0.00 96 1019.1
20260902103106 69 0 0.0 0.0 0.00 0.00 0.00 97 1018.8
20260902101552 69 0 0.0 0.0 0.00 0.00 0.00 97 1018.8
20260902100049 69 0 0.0 0.0 0.00 0.00 0.00 96 1018.6
20260902094557 69 0 0.0 0.0 0.00 0.00 0.00 96 1018.6
20260902093100 69 0 0.0 0.0 0.00 0.00 0.00 96 1018.6
20260902091612 69 0 0.0 0.0 0.00 0.00 0.00 96 1018.6
20260902090047 70 0 0.0 0.0 0.00 0.00 0.00 96 1018.5
20260902084551 70 0 0.0 0.0 0.00 0.00 0.00 96 1018.4
20260902083114 70 0 0.0 0.0 0.00 0.00 0.00 97 1018.4
20260902081547 70 0 0.0 0.0 0.00 0.00 0.00 96 1018.3
20260902080121 70 0 0.0 0.0 0.00 0.00 0.00 96 1018.2
20260902074549 70 0 0.0 0.0 0.00 0.00 0.00 96 1018.3
20260902073102 70 0 0.0 0.0 0.00 0.00 0.00 96 1018.4
20260902071605 70 0 0.0 0.0 0.00 0.00 0.00 96 1018.2
20260902070136 70 0 0.0 0.0 0.00 0.00 0.00 95 1018.2
20260902064559 70 0 0.0 0.0 0.00 0.00 0.00 95 1018.3
20260902063101 71 0 0.0 0.0 0.00 0.00 0.00 95 1018.3
20260902061602 71 0 0.0 0.0 0.00 0.00 0.00 95 1018.4